Wind_Speed
46 47 48 48 47 48 49 49 50 50 50 50 50 51 52 53 53 53 53 53 54 54 55 55 54 55 55 55 55 55 55 55 55 54 54 55 57 58 58 58 58 58 58
45 46 47 48 49 49 49 50 51 51 51 51 51 52 53 54 54 55 55 55 55 55 55 56 56 56 56 56 56 56 55 56 56 56 55 56 57 58 59 59 59 59 59
45 45 46 48 49 50 50 50 51 52 53 53 53 53 54 54 55 56 57 57 57 56 57 57 57 57 56 56 55 55 55 56 56 56 56 56 57 58 60 60 60 60 60
46 47 47 48 49 49 49 50 51 52 53 54 54 55 56 55 56 56 56 57 57 58 57 57 57 57 57 57 57 57 57 57 57 57 57 57 58 58 59 59 60 60 60
46 47 48 49 49 49 50 50 51 52 53 55 55 55 55 55 56 56 57 57 57 58 58 57 57 57 58 58 58 59 59 58 57 57 57 57 58 58 58 59 60 60 61
45 47 49 50 50 49 49 50 51 52 52 53 54 55 56 55 55 56 56 57 57 57 57 57 57 57 57 58 58 59 59 59 59 58 58 58 57 57 57 58 59 60 61
44 45 48 49 49 49 50 49 49 50 50 51 52 53 54 54 55 56 56 56 56 56 57 57 58 57 57 58 58 59 59 60 60 59 59 58 58 58 58 58 59 60 60
42 43 45 47 48 49 49 49 48 48 49 49 50 52 52 53 54 55 56 56 55 55 55 56 58 58 59 58 58 59 59 60 60 60 60 59 59 59 59 59 59 60 61
42 42 44 45 46 47 48 48 48 47 47 48 49 50 51 52 52 53 54 54 54 55 55 56 57 57 58 59 59 59 59 60 60 60 60 60 60 60 60 60 59 60 60
42 43 44 45 46 46 46 46 46 46 47 47 49 49 50 50 50 51 53 53 53 54 54 55 55 56 56 57 58 59 59 59 60 60 60 60 60 61 61 61 60 60 60
43 43 43 44 45 45 45 45 45 45 46 47 48 48 49 49 50 50 50 51 51 52 53 53 54 55 55 56 57 58 58 59 59 59 59 59 59 60 60 59 59 59 59
43 44 44 44 44 44 44 44 44 44 45 46 47 47 48 49 49 50 50 50 51 51 51 52 52 53 54 55 56 57 57 58 58 59 58 58 59 58 58 58 58 58 57
44 44 44 44 44 44 43 44 44 45 45 46 46 46 47 48 49 49 49 50 51 51 51 51 52 52 53 54 54 55 56 57 57 57 57 57 57 57 58 57 57 57 56
43 43 43 43 43 43 43 43 44 44 45 45 46 46 46 47 47 48 48 49 50 50 49 50 50 51 51 52 53 54 55 55 56 56 56 56 56 56 56 56 55 55 55
42 42 42 42 42 42 42 42 43 43 44 45 45 45 45 45 46 47 48 48 49 49 49 49 49 50 50 50 51 52 53 54 54 55 55 55 55 54 54 54 53 53 53
41 41 41 41 41 41 41 41 41 42 43 44 44 44 44 44 45 46 46 47 47 48 48 48 48 49 49 49 49 50 52 52 52 53 53 53 53 52 52 52 51 51 50
40 40 40 40 40 40 40 40 40 41 42 43 44 44 44 44 44 45 45 46 46 47 47 46 47 48 48 48 49 49 50 50 50 50 50 51 51 50 50 50 50 49 49
40 40 40 40 40 40 40 40 40 41 41 41 43 44 44 44 44 44 44 44 44 45 45 45 45 46 47 47 47 47 47 47 47 47 48 48 48 48 48 49 48 48 48
39 39 39 39 39 40 40 40 40 40 41 41 41 42 42 42 43 43 43 43 43 43 44 44 44 44 44 44 44 44 44 44 44 45 45 45 45 46 46 46 45 46 46
39 39 39 39 39 39 40 40 40 41 41 40 40 40 40 41 41 42 42 43 42 43 43 42 43 43 43 43 42 42 42 42 42 43 44 44 44 43 44 44 44 44 44
39 39 39 40 40 40 40 40 40 40 40 40 40 40 40 40 40 41 41 42 42 42 42 41 41 41 41 41 42 42 42 41 41 41 42 42 42 42 43 43 43 42 42
39 39 39 40 40 40 40 40 40 40 40 39 39 40 40 40 40 40 40 41 41 41 40 40 40 40 40 40 40 41 41 41 40 41 41 42 41 41 41 41 41 42 41
38 39 39 39 39 39 40 40 40 40 39 39 39 39 39 39 39 39 39 39 39 39 39 39 39 39 40 40 40 40 40 40 40 40 40 40 41 41 41 41 41 41 41
38 38 38 38 38 38 38 39 39 39 39 38 38 38 38 38 38 38 38 37 37 37 37 38 38 38 38 38 39 39 39 39 39 39 39 39 39 40 40 40 40 40 40
37 37 37 37 37 38 38 38 37 37 37 37 37 36 36 36 36 36 36 36 36 36 36 37 37 37 37 37 37 38 38 39 39 39 39 39 39 39 40 40 40 41 41
37 37 37 37 37 37 37 36 36 36 36 35 35 35 34 34 34 34 34 34 35 35 36 36 36 36 36 36 37 37 38 38 39 39 39 39 39 39 40 40 40 40 40
Wind_Direction
266 265 264 263 262 260 259 259 259 259 258 258 258 257 255 254 255 256 257 258 259 258 258 259 259 260 259 259 260 259 259 260 260 260 260 260 259 259 259 260 261 261 261
267 265 265 264 264 263 261 260 260 259 259 259 259 258 256 256 256 257 257 258 259 259 259 259 259 260 259 260 260 259 259 260 260 259 259 260 260 259 259 260 260 261 260
268 267 266 265 265 265 264 263 262 261 260 259 259 259 257 257 257 257 258 258 258 259 259 260 260 259 259 259 260 260 259 260 260 260 260 260 261 260 260 260 260 260 260
267 267 266 266 266 265 264 263 263 262 261 260 260 259 258 257 258 257 257 258 258 258 258 258 259 259 259 259 259 259 259 259 260 260 260 260 261 261 261 260 260 260 260
269 268 267 267 266 266 265 264 263 263 262 261 260 259 257 257 257 257 257 257 258 258 258 258 259 259 259 259 259 259 259 259 260 260 261 261 262 262 262 262 261 261 261
271 270 269 268 268 267 266 265 264 263 263 261 260 259 258 258 257 258 259 259 259 259 258 258 258 258 259 259 259 259 260 260 260 261 261 262 263 263 263 262 262 262 262
274 273 271 270 268 267 267 266 265 264 263 261 261 259 259 259 258 259 259 259 259 258 257 257 257 258 258 258 259 259 260 260 260 261 262 262 263 263 263 263 264 263 264
274 274 273 272 270 269 269 267 267 266 264 263 262 260 259 260 259 259 259 259 258 258 258 258 257 257 257 258 258 258 259 260 260 261 261 262 262 262 263 264 265 265 265
275 275 276 274 272 270 269 268 267 266 265 265 264 262 262 261 260 260 259 260 259 259 259 259 259 259 258 258 258 259 259 260 260 261 262 261 261 262 263 265 265 265 265
277 277 277 275 273 271 270 269 267 266 266 266 265 264 263 262 262 262 261 261 260 260 260 260 261 260 259 259 258 258 258 258 258 260 260 261 261 262 263 264 264 265 265
279 278 278 277 275 273 271 269 268 268 267 266 265 265 264 263 263 263 263 262 262 262 262 261 261 260 260 259 258 257 257 258 258 259 260 261 261 262 262 263 264 265 264
280 280 279 278 276 274 272 270 269 269 268 267 266 265 265 264 264 264 264 264 264 263 263 262 262 261 261 260 259 258 258 258 259 259 259 259 260 261 262 262 263 264 265
282 280 279 278 277 275 273 272 270 270 270 269 267 267 265 264 264 264 264 264 264 264 263 263 263 263 262 261 261 260 259 259 259 259 259 259 259 260 261 262 262 263 264
283 281 280 278 277 276 274 273 272 272 272 271 269 269 268 267 265 264 263 263 263 263 263 263 263 263 263 262 261 261 260 260 260 259 259 259 259 260 261 261 261 262 262
283 281 280 278 277 276 275 275 274 274 274 272 271 270 269 267 266 265 264 264 263 263 263 264 264 263 263 263 262 262 260 261 261 260 260 259 259 260 260 260 260 261 261
283 282 280 279 278 277 276 276 275 275 274 273 272 272 270 269 267 266 264 264 264 263 263 263 263 263 263 263 263 263 262 261 261 261 260 259 259 259 259 258 259 260 260
283 282 281 279 278 277 277 277 276 276 275 275 274 273 272 270 268 266 265 264 264 264 263 263 263 264 264 264 264 263 262 261 261 259 259 258 257 257 258 257 257 258 259
283 282 281 281 280 279 278 277 277 276 276 275 275 274 273 271 269 268 266 265 265 264 263 263 264 265 265 265 264 263 261 259 259 257 257 257 257 257 257 256 256 258 258
284 283 283 282 281 281 279 278 278 278 277 277 276 275 273 272 270 269 267 266 265 264 264 264 263 264 265 264 264 262 260 258 257 256 256 256 256 256 255 255 256 257 258
285 284 283 282 282 282 281 279 278 278 278 277 276 274 272 271 270 269 268 268 267 266 265 264 263 263 263 262 261 260 259 257 256 255 254 254 254 255 254 254 256 257 258
285 284 284 283 282 282 282 280 279 278 278 276 275 274 272 271 270 270 269 268 268 267 266 265 265 264 262 261 260 259 257 256 255 255 254 254 254 254 254 255 256 256 257
285 285 285 284 283 283 282 281 280 279 278 277 275 274 274 273 272 271 270 269 268 267 265 265 264 263 262 261 259 257 256 255 254 254 254 253 253 254 254 255 256 256 256
286 285 285 284 284 283 283 282 281 280 279 278 277 275 273 273 272 271 270 268 267 265 264 264 264 263 262 261 259 258 256 255 255 254 254 254 254 254 254 255 255 255 255
287 286 285 285 284 284 284 283 282 281 280 278 277 276 274 273 272 271 269 268 265 264 264 264 264 263 261 260 259 258 257 256 256 255 254 253 253 254 255 255 255 255 255
288 287 286 285 285 285 285 284 283 282 280 279 277 276 275 273 272 271 270 267 266 264 264 264 263 261 260 260 259 258 257 257 256 256 255 255 254 255 256 257 256 256 255
290 288 287 287 286 286 285 284 283 282 281 280 278 276 275 274 272 271 269 268 267 266 264 263 262 261 259 259 259 259 258 257 256 256 256 255 255 256 256 256 256 255 255
Height
5566 5567 5567 5568 5569 5571 5572 5573 5574 5575 5576 5578 5579 5581 5583 5586 5588 5590 5593 5595 5597 5599 5601 5603 5606 5608 5610 5612 5614 5617 5619 5622 5625 5628 5630 5632 5633 5635 5638 5640 5642 5645 5647
5553 5554 5554 5555 5555 5556 5557 5559 5559 5561 5562 5563 5564 5566 5568 5570 5572 5574 5577 5579 5581 5583 5585 5587 5590 5592 5594 5596 5598 5601 5603 5606 5608 5611 5614 5616 5618 5620 5622 5624 5626 5628 5631
5540 5540 5540 5541 5542 5542 5543 5543 5544 5545 5546 5547 5549 5550 5552 5554 5556 5558 5560 5563 5565 5567 5569 5571 5573 5575 5578 5580 5582 5584 5587 5589 5592 5594 5597 5600 5601 5603 5605 5607 5609 5612 5614
5526 5526 5526 5527 5527 5527 5528 5528 5528 5529 5530 5531 5532 5534 5535 5537 5539 5541 5543 5546 5548 5550 5552 5554 5557 5559 5561 5563 5566 5568 5570 5573 5575 5577 5580 5583 5585 5586 5588 5591 5593 5595 5598
5513 5512 5512 5512 5512 5512 5512 5512 5513 5513 5513 5514 5515 5516 5518 5520 5522 5524 5526 5528 5531 5533 5535 5538 5540 5542 5544 5546 5549 5551 5553 5556 5558 5561 5563 5566 5568 5570 5572 5574 5576 5578 5581
5499 5498 5497 5497 5497 5497 5497 5497 5497 5497 5497 5498 5499 5500 5502 5504 5506 5507 5509 5511 5513 5516 5518 5520 5523 5525 5527 5529 5532 5534 5537 5539 5542 5545 5547 5550 5552 5554 5555 5557 5559 5561 5565
5486 5484 5483 5483 5482 5482 5482 5482 5481 5481 5482 5482 5483 5484 5486 5488 5490 5491 5493 5494 5496 5498 5500 5503 5505 5507 5509 5512 5514 5517 5519 5522 5525 5528 5531 5533 5536 5538 5539 5541 5542 5544 5547
5473 5471 5470 5468 5468 5467 5467 5467 5467 5466 5467 5467 5468 5469 5471 5473 5474 5475 5476 5478 5479 5481 5483 5485 5487 5490 5492 5494 5497 5500 5502 5505 5508 5511 5514 5517 5518 5519 5521 5523 5524 5526 5529
5460 5458 5456 5455 5454 5453 5453 5453 5453 5453 5453 5453 5454 5455 5456 5457 5458 5459 5460 5461 5463 5465 5467 5468 5470 5472 5475 5477 5480 5483 5485 5487 5489 5492 5495 5498 5500 5502 5503 5505 5507 5509 5511
5447 5446 5444 5442 5440 5440 5439 5439 5439 5439 5439 5439 5440 5440 5441 5442 5443 5443 5444 5446 5448 5450 5451 5452 5454 5455 5457 5459 5461 5464 5467 5470 5472 5475 5477 5479 5481 5484 5485 5488 5490 5492 5494
5435 5433 5431 5429 5427 5426 5426 5425 5425 5425 5426 5426 5426 5426 5427 5427 5428 5428 5429 5430 5431 5433 5434 5436 5438 5439 5440 5442 5444 5447 5450 5452 5454 5457 5459 5462 5464 5466 5468 5470 5472 5474 5477
5423 5421 5419 5417 5415 5414 5413 5412 5411 5411 5412 5411 5412 5412 5412 5413 5413 5413 5414 5414 5415 5417 5419 5420 5422 5422 5424 5425 5427 5429 5432 5434 5436 5439 5442 5445 5447 5449 5451 5453 5455 5457 5459
5410 5408 5406 5404 5402 5401 5400 5399 5398 5398 5398 5397 5397 5398 5398 5398 5398 5398 5399 5399 5400 5401 5403 5404 5406 5407 5408 5409 5411 5412 5414 5417 5419 5422 5425 5428 5430 5433 5434 5436 5438 5440 5442
5397 5395 5393 5391 5390 5388 5387 5386 5385 5384 5384 5383 5383 5383 5383 5383 5383 5383 5384 5384 5385 5386 5387 5388 5390 5391 5392 5393 5394 5396 5397 5400 5402 5405 5408 5411 5413 5416 5418 5420 5422 5424 5426
5384 5382 5380 5379 5377 5376 5375 5373 5372 5371 5369 5369 5369 5368 5368 5369 5368 5368 5368 5369 5370 5371 5372 5373 5374 5375 5376 5378 5379 5380 5382 5383 5385 5388 5391 5394 5397 5399 5402 5404 5406 5408 5411
5372 5370 5368 5366 5365 5363 5362 5361 5359 5357 5356 5355 5354 5354 5354 5354 5353 5353 5354 5354 5354 5355 5356 5358 5359 5360 5362 5363 5364 5365 5366 5368 5370 5372 5374 5377 5380 5383 5386 5388 5391 5393 5396
5359 5357 5355 5354 5352 5351 5349 5348 5347 5346 5344 5342 5341 5340 5339 5339 5339 5339 5339 5339 5339 5340 5341 5343 5344 5345 5346 5347 5349 5350 5351 5353 5355 5357 5359 5362 5365 5368 5371 5374 5376 5379 5381
5347 5345 5343 5341 5339 5338 5336 5335 5334 5333 5331 5330 5328 5326 5325 5325 5324 5324 5324 5324 5325 5326 5327 5328 5329 5330 5331 5333 5334 5334 5336 5338 5340 5342 5345 5347 5350 5353 5356 5359 5362 5365 5367
5335 5333 5331 5329 5327 5325 5323 5322 5320 5319 5317 5316 5315 5313 5311 5311 5310 5310 5310 5310 5311 5312 5313 5314 5315 5316 5317 5318 5319 5320 5322 5324 5326 5328 5331 5334 5337 5339 5342 5345 5348 5351 5353
5323 5321 5319 5317 5315 5313 5311 5309 5307 5306 5304 5303 5301 5300 5298 5298 5297 5297 5297 5297 5297 5298 5298 5299 5300 5302 5303 5304 5305 5307 5309 5311 5313 5315 5318 5321 5323 5326 5329 5332 5335 5338 5340
5311 5308 5306 5304 5302 5300 5298 5296 5294 5293 5291 5289 5288 5286 5285 5284 5284 5283 5283 5283 5283 5284 5284 5285 5286 5288 5289 5290 5292 5294 5295 5298 5300 5303 5305 5308 5311 5314 5317 5319 5322 5324 5327
5299 5296 5294 5292 5289 5287 5285 5283 5281 5279 5277 5276 5275 5273 5272 5271 5271 5270 5269 5269 5269 5270 5271 5272 5273 5274 5276 5277 5279 5281 5283 5285 5288 5290 5293 5296 5299 5301 5304 5307 5309 5312 5314
5286 5284 5281 5279 5276 5274 5272 5270 5268 5266 5264 5263 5261 5260 5259 5258 5257 5257 5256 5256 5256 5257 5258 5259 5260 5262 5263 5264 5266 5268 5271 5273 5276 5278 5281 5283 5286 5289 5292 5295 5297 5299 5302
5274 5271 5269 5266 5264 5262 5260 5257 5255 5253 5251 5250 5248 5247 5246 5245 5244 5244 5244 5244 5244 5245 5245 5246 5248 5249 5250 5252 5254 5256 5259 5261 5264 5266 5269 5272 5274 5277 5280 5282 5285 5287 5290
5261 5259 5256 5254 5252 5249 5247 5245 5242 5240 5238 5237 5236 5234 5233 5232 5232 5232 5231 5232 5232 5233 5233 5234 5235 5237 5238 5240 5242 5244 5246 5249 5251 5254 5257 5259 5262 5265 5267 5270 5273 5275 5277
5249 5246 5244 5241 5239 5236 5234 5232 5230 5228 5227 5225 5223 5222 5221 5220 5220 5220 5220 5220 5221 5221 5222 5223 5224 5225 5227 5228 5230 5232 5235 5237 5239 5242 5244 5247 5250 5252 5255 5257 5260 5263 5265